User: anonymous   Login
Location: Unspecified
(0.0000°N, 0.0000°E)
Time: 23:02:28
(UTC+00:00)
Language:

STARLINK-32501 - Orbit

View from above orbital plane
View from above orbital plane
View from above satellite
View from above satellite

Ground track
Ground track

The orbit is defined by the following mean orbital elements,

1 61890U          26145.34686913 +.00000000 +00000-0 -81690-5 0 00005
2 61890  53.1623 130.3412 0001128  95.0748 265.0384 15.34398802    06
Epoch (UTC): 25 May 2026 08:19:29
Eccentricity: 0.0001128
inclination: 53.1623°
perigee height: 462 km
apogee height: 463 km
right ascension of ascending node: 130.3412°
argument of perigee: 95.0748°
revolutions per day: 15.34398802
mean anomaly at epoch: 265.0384°

The dashed part of the orbit path shows where the satellite is in the earth's shadow,  

DLR